| time (UTC) | temp C | wind direction | speed KPH | gust KPH | rain 1hr cm | rain 24hr cm | rain mn cm | humidity % | barometer mb |
| 20260502170137 | 22 | 297 | 3.2 | 8.0 | 0.00 | 3.30 | 0.03 | 49 | 1020.8 |
| 20260502163047 | 21 | 337 | 1.6 | 11.3 | 0.00 | 3.56 | 0.03 | 55 | 1020.8 |
| 20260502161536 | 20 | 324 | 1.6 | 11.3 | 0.00 | 3.56 | 0.03 | 57 | 1020.8 |
| 20260502160136 | 20 | 274 | 3.2 | 14.5 | 0.00 | 3.56 | 0.03 | 60 | 1020.8 |
| 20260502151557 | 18 | 290 | 1.6 | 8.0 | 0.00 | 3.63 | 0.03 | 66 | 1020.5 |
| 20260502150135 | 18 | 26 | 4.8 | 9.7 | 0.00 | 3.63 | 0.03 | 67 | 1020.5 |
| 20260502123100 | 11 | 325 | 0.0 | 6.4 | 0.00 | 4.14 | 0.00 | 88 | 1019.0 |
| 20260502121601 | 11 | 327 | 3.2 | 4.8 | 0.00 | 4.14 | 0.00 | 87 | 1018.8 |
| 20260502114556 | 11 | 284 | 0.0 | 1.6 | 0.00 | 4.19 | 0.00 | 87 | 1018.5 |
| 20260502113055 | 11 | 336 | 0.0 | 4.8 | 0.00 | 4.19 | 0.00 | 86 | 1018.3 |
| 20260502111552 | 11 | 299 | 0.0 | 6.4 | 0.00 | 4.19 | 0.00 | 86 | 1018.1 |
| 20260502110059 | 11 | 301 | 0.0 | 4.8 | 0.00 | 4.19 | 0.00 | 86 | 1017.9 |
| 20260502104549 | 11 | 299 | 1.6 | 4.8 | 0.00 | 4.27 | 0.00 | 86 | 1017.9 |
| 20260502103051 | 12 | 321 | 0.0 | 4.8 | 0.00 | 4.27 | 0.00 | 85 | 1017.8 |
| 20260502101556 | 12 | 325 | 1.6 | 6.4 | 0.00 | 4.27 | 0.00 | 85 | 1017.5 |
| 20260502071529 | 12 | 272 | 0.0 | 3.2 | 0.00 | 5.77 | 0.00 | 87 | 1016.2 |
| 20260502070041 | 12 | 298 | 1.6 | 4.8 | 0.00 | 5.77 | 0.00 | 87 | 1016.3 |
| 20260502064527 | 12 | 302 | 0.0 | 4.8 | 0.00 | 5.77 | 0.00 | 87 | 1016.3 |
| 20260502063034 | 13 | 310 | 0.0 | 6.4 | 0.00 | 5.77 | 0.00 | 87 | 1016.0 |
| 20260502061523 | 13 | 279 | 0.0 | 4.8 | 0.00 | 5.77 | 0.00 | 87 | 1015.9 |
| 20260502060122 | 13 | 355 | 0.0 | 4.8 | 0.00 | 5.77 | 0.00 | 87 | 1015.8 |
| 20260502054531 | 13 | 333 | 0.0 | 8.0 | 0.00 | 5.97 | 0.00 | 88 | 1015.8 |
| 20260502053019 | 13 | 304 | 1.6 | 8.0 | 0.00 | 5.97 | 0.00 | 88 | 1015.8 |
| 20260502051517 | 13 | 339 | 3.2 | 6.4 | 0.00 | 5.97 | 0.00 | 88 | 1015.7 |
| 20260502050033 | 13 | 311 | 1.6 | 8.0 | 0.00 | 6.40 | 5.97 | 89 | 1015.5 |
| 20260502044515 | 13 | 325 | 0.0 | 8.0 | 0.00 | 6.40 | 5.97 | 89 | 1015.4 |
| 20260502043016 | 13 | 317 | 1.6 | 8.0 | 0.00 | 6.40 | 5.97 | 89 | 1015.6 |
| 20260502041513 | 13 | 306 | 1.6 | 11.3 | 0.00 | 6.40 | 5.97 | 89 | 1015.6 |
| 20260502040013 | 13 | 350 | 1.6 | 6.4 | 0.00 | 6.40 | 5.97 | 89 | 1015.5 |
| 20260502034517 | 13 | 321 | 1.6 | 8.0 | 0.00 | 6.40 | 5.97 | 89 | 1015.6 |
| 20260502033008 | 13 | 298 | 1.6 | 6.4 | 0.03 | 6.40 | 5.97 | 89 | 1015.2 |
| 20260502031507 | 13 | 256 | 3.2 | 14.5 | 0.05 | 6.40 | 5.97 | 89 | 1015.0 |
| 20260502030043 | 13 | 346 | 3.2 | 12.9 | 0.08 | 6.40 | 5.97 | 89 | 1014.6 |
| 20260502024546 | 13 | 285 | 1.6 | 4.8 | 0.13 | 6.40 | 5.97 | 90 | 1014.1 |
| 20260502023057 | 13 | 283 | 1.6 | 6.4 | 0.13 | 6.40 | 5.94 | 89 | 1013.7 |
| 20260502021536 | 13 | 287 | 1.6 | 9.7 | 0.15 | 6.35 | 5.92 | 89 | 1013.5 |
| 20260502020134 | 14 | 338 | 1.6 | 6.4 | 0.18 | 6.35 | 5.87 | 90 | 1013.6 |
| 20260502014537 | 14 | 319 | 1.6 | 6.4 | 0.15 | 6.27 | 5.82 | 90 | 1013.5 |
| 20260502013034 | 14 | 346 | 3.2 | 9.7 | 0.23 | 6.27 | 5.82 | 89 | 1013.3 |
| 20260502011534 | 15 | 279 | 0.0 | 8.0 | 0.25 | 6.22 | 5.77 | 90 | 1012.6 |
| 20260502010136 | 15 | 304 | 1.6 | 8.0 | 0.30 | 6.17 | 5.71 | 90 | 1012.7 |
| 20260502004535 | 15 | 319 | 1.6 | 9.7 | 0.36 | 6.12 | 5.66 | 90 | 1013.5 |
| 20260502003033 | 15 | 260 | 0.0 | 14.5 | 0.33 | 6.05 | 5.59 | 89 | 1011.4 |
| 20260502001533 | 15 | 311 | 3.2 | 8.0 | 0.28 | 5.97 | 5.51 | 89 | 1011.8 |
| 20260502000133 | 15 | 305 | 0.0 | 6.4 | 0.28 | 5.87 | 5.41 | 89 | 1012.0 |
| 20260501234537 | 15 | 305 | 0.0 | 6.4 | 0.33 | 5.77 | 5.31 | 89 | 1012.8 |
| 20260501233034 | 15 | 175 | 1.6 | 4.8 | 0.28 | 5.71 | 5.23 | 89 | 1011.1 |
| 20260501231533 | 15 | 78 | 1.6 | 8.0 | 0.25 | 5.69 | 5.23 | 89 | 1010.5 |
| 20260501230133 | 15 | 289 | 0.0 | 6.4 | 0.13 | 5.56 | 5.08 | 89 | 1010.7 |
| 20260501224556 | 16 | 180 | 1.6 | 9.7 | 0.03 | 5.44 | 4.98 | 90 | 1010.3 |
| 20260501223031 | 16 | 72 | 3.2 | 9.7 | 0.03 | 5.44 | 4.98 | 90 | 1010.0 |
| 20260501221528 | 16 | 83 | 0.0 | 6.4 | 0.13 | 5.44 | 4.98 | 90 | 1009.8 |
| 20260501220129 | 16 | 281 | 1.6 | 4.8 | 0.15 | 5.44 | 4.98 | 90 | 1010.0 |
| 20260501214554 | 16 | 347 | 0.0 | 3.2 | 0.15 | 5.41 | 4.95 | 90 | 1010.5 |
| 20260501213053 | 16 | 323 | 1.6 | 6.4 | 0.36 | 5.41 | 4.95 | 91 | 1010.8 |
| 20260501211549 | 16 | 319 | 1.6 | 8.0 | 0.41 | 5.31 | 4.85 | 90 | 1010.7 |
| 20260501210149 | 16 | 314 | 0.0 | 9.7 | 0.51 | 5.28 | 4.83 | 90 | 1009.9 |
| 20260501204548 | 16 | 302 | 1.6 | 8.0 | 0.51 | 5.23 | 4.80 | 90 | 1009.5 |
| 20260501203047 | 16 | 267 | 0.0 | 6.4 | 0.41 | 5.05 | 4.60 | 90 | 1009.9 |
| 20260501201547 | 16 | 263 | 0.0 | 6.4 | 0.33 | 4.90 | 4.45 | 91 | 1009.5 |
| 20260501200146 | 16 | 291 | 3.2 | 9.7 | 0.33 | 4.78 | 4.32 | 90 | 1009.1 |
| 20260501194556 | 17 | 322 | 1.6 | 4.8 | 0.36 | 4.75 | 4.29 | 90 | 1008.9 |
| 20260501193150 | 17 | 340 | 0.0 | 6.4 | 0.30 | 4.65 | 4.19 | 90 | 1008.9 |
| 20260501191551 | 17 | 157 | 0.0 | 6.4 | 0.64 | 4.55 | 4.09 | 90 | 1009.4 |
| 20260501190146 | 17 | 92 | 0.0 | 6.4 | 0.56 | 4.42 | 3.96 | 90 | 1009.6 |
| 20260501184548 | 16 | 109 | 0.0 | 3.2 | 1.09 | 4.39 | 3.94 | 90 | 1009.2 |
| 20260501183048 | 16 | 94 | 1.6 | 4.8 | 1.17 | 4.34 | 3.89 | 90 | 1008.6 |
| 20260501181546 | 16 | 177 | 1.6 | 9.7 | 0.76 | 3.91 | 3.45 | 90 | 1009.9 |
| 20260501180146 | 17 | 108 | 0.0 | 6.4 | 0.71 | 3.86 | 3.40 | 90 | 1008.6 |
| 20260501174547 | 17 | 223 | 0.0 | 8.0 | 0.15 | 3.30 | 2.84 | 90 | 1009.8 |